Location: Newark
(49.3000°N, 9.4667°E)
Time: 00:26:25
(UTC+00:00)

Tiros 1 - Pass Details

Date: 26 May 2019
Orbit: 631 x 664 km, 48.4° (Epoch: 19 June)

Event Time Altitude Azimuth Distance (km) Brightness Sun altitude
Rises 13:11:57 0° 280° (W) 2,943 10.8 54.0°
Reaches altitude 10° 13:14:18 10° 277° (W) 2,038 10.2 53.8°
Maximum altitude 13:18:55 59° 198° (SSW) 749 9.3 53.2°
Drops below altitude 10° 13:23:34 10° 120° (ESE) 2,054 9.7 52.6°
Sets 13:25:56 0° 116° (ESE) 2,969 10.4 52.3°
